LiveATC.Net - Listen to live air traffic control over the Internet!
Airport/ARTCC Code
Frequency Search
(e.g., 124.400, 128.75)
Site-wide search
 


Browse Feeds
Top 50 Feeds
HF Oceanic Feeds
Coverage Map
Bad Weather Areas

LiveATC FAQ

Increase Coverage

Contact LiveATC.net
Press Inquiries

LiveATC on iPhone
LiveATC on Android

LiveATC Mobile
(Mobile browser)

ATC Audio Archives
Interesting Recordings

LiveATC Forums

Home Page
About LiveATC.net


Terms of Use
Privacy Policy

AIRMETs/SIGMETs

FAA Airport Status
NAS Status
Arrival Demand


Server Software By:
Icecast.org
Liquidsoap

Select an area of interest:
U.S. Feeds: Class B Airports | Class C Airports | Class D/Other Airports | ARTCC (Centers)
International Feeds: Canada | Europe | Oceania | Asia | South America | North/Central America | Africa
Misc Feeds: HF Feeds
Search by ICAO/IATA airport code:   (e.g., kbos, kjfk, lax, eham, etc.)


Currently Available Live Feeds: 3199
Status Updated: Fri Apr 12 2024 17:42:04 UTC


NOTICE

Unauthorized use prohibited. See LiveATC.net Terms of Service

Canada Airport Feeds

 

CEN4 CTAF (Archives)
High River, Alberta, Canada

Feed Status: UP
Listen in your browser - HTML5 player(in browser, HTML5)
Click here to listen with your own player(launches your MP3 player)

CEN4 Flight Activity (Flightaware)

Listeners: 0 out of 3091 total

High River CTAF: 123.000

CES4 CTAF (Archives)
Westlock, Alberta, Canada

Feed Status: UP
Listen in your browser - HTML5 player(in browser, HTML5)
Click here to listen with your own player(launches your MP3 player)

METAR NOT AVAILABLE

CES4 Flight Activity (Flightaware)

Listeners: 0 out of 3091 total

Westlock CTAF: 122.800

CES4 Emergency/Guard (Archives)
Westlock, Alberta, Canada

Feed Status: UP
Listen in your browser - HTML5 player(in browser, HTML5)
Click here to listen with your own player(launches your MP3 player)

METAR NOT AVAILABLE

CES4 Flight Activity (Flightaware)

Listeners: 0 out of 3091 total

Emergency/Guard: 121.500

CKK7 CTAF (Archives)
Steinbach, Manitoba, Canada

Feed Status: UP
Listen in your browser - HTML5 player(in browser, HTML5)
Click here to listen with your own player(launches your MP3 player)

CKK7 Flight Activity (Flightaware)

Listeners: 0 out of 3091 total

Steinbach CTAF: 122.700

Toronto Terminal (West Satellite) #1 (Archives)
Brampton, Ontario, Canada

Feed Status: UP
Listen in your browser - HTML5 player(in browser, HTML5)
Click here to listen with your own player(launches your MP3 player)

CYTZ 121718Z AUTO 24016G24KT 9SM OVC024 08/06 A2912 RMK SLP865 DENSITY ALT 500FT

CYTZ Flight Activity (Flightaware)

Listeners: 1 out of 3091 total

Toronto Terminal (West Satellite): 119.300

CNP3 CTAF
Arnprior, Ontario, Canada

Feed Status: DOWN
Offline since: 2024-04-07 17:38:04 UTC

Arnprior Multicom/CTAF: 122.700

CSB3 CTAF (Archives)
St-Mathieu-De-Beloeil, Quebec, Canada

Feed Status: UP
Listen in your browser - HTML5 player(in browser, HTML5)
Click here to listen with your own player(launches your MP3 player)

CSB3 Flight Activity (Flightaware)

Listeners: 0 out of 3091 total

St-Mathieu-De-Beloeil CTAF: 122.700

CSG3 CTAF (Archives)
Joliette, Quebec, Canada

Feed Status: UP
Listen in your browser - HTML5 player(in browser, HTML5)
Click here to listen with your own player(launches your MP3 player)

CSG3 Flight Activity (Flightaware)

Listeners: 0 out of 3091 total

Joliette CTAF: 123.500

CSR3 CTAF (Archives)
Victoriaville, Quebec, Canada

Feed Status: UP
Listen in your browser - HTML5 player(in browser, HTML5)
Click here to listen with your own player(launches your MP3 player)

CSR3 Flight Activity (Flightaware)

Listeners: 0 out of 3091 total

Victoriaville CTAF/UNICOM: 123.350

CYRQ/CSR3 CTAF (Archives)
Victoriaville, Quebec, Canada

Feed Status: UP
Listen in your browser - HTML5 player(in browser, HTML5)
Click here to listen with your own player(launches your MP3 player)

CYRQ 121700Z AUTO 08009G15KT 9SM FEW060 BKN160 15/13 A2928 RMK SLP918 DENSITY ALT 1000FT

CYRQ Flight Activity (Flightaware)

Listeners: 0 out of 3091 total

Trois-Rivieres CTAF/UNICOM: 122.350
Victoriaville CTAF/UNICOM: 123.350

CYAM ATIS (Archives)
Sault Ste. Marie, Ontario, Canada

Feed Status: UP
Listen in your browser - HTML5 player(in browser, HTML5)
Click here to listen with your own player(launches your MP3 player)

CYAM 121700Z 32026G38KT 5SM -RA BR FEW009 SCT024 OVC035 05/04 A2940 RMK SC2SC2NS4 SLP963

CYAM Flight Activity (Flightaware)

Listeners: 0 out of 3091 total

Sault ATIS: 133.050

CYAM Ground/Misc (Archives)
Sault Ste. Marie, Ontario, Canada

Feed Status: UP
Listen in your browser - HTML5 player(in browser, HTML5)
Click here to listen with your own player(launches your MP3 player)

CYAM 121700Z 32026G38KT 5SM -RA BR FEW009 SCT024 OVC035 05/04 A2940 RMK SC2SC2NS4 SLP963

CYAM Flight Activity (Flightaware)

Listeners: 0 out of 3091 total

London FIC: 123.475
London FIC: 126.700
Sault College: 130.700
Sault Ground: 121.700

CYAM Tower (Archives)
Sault Ste. Marie, Ontario, Canada

Feed Status: UP
Listen in your browser - HTML5 player(in browser, HTML5)
Click here to listen with your own player(launches your MP3 player)

CYAM 121700Z 32026G38KT 5SM -RA BR FEW009 SCT024 OVC035 05/04 A2940 RMK SC2SC2NS4 SLP963

CYAM Flight Activity (Flightaware)

Listeners: 0 out of 3091 total

Sault Ste. Marie Tower: 118.800

Toronto Center (Sault High) (Archives)
Sault Ste. Marie, Ontario, Canada

Feed Status: UP
Listen in your browser - HTML5 player(in browser, HTML5)
Click here to listen with your own player(launches your MP3 player)

CZYZ Flight Activity (Flightaware)

Listeners: 1 out of 3091 total

Toronto Center (Sault High Sector): 134.425

Toronto Center (Sault Low) (Archives)
Sault Ste. Marie, Ontario, Canada

Feed Status: UP
Listen in your browser - HTML5 player(in browser, HTML5)
Click here to listen with your own player(launches your MP3 player)

CZYZ Flight Activity (Flightaware)

Listeners: 1 out of 3091 total

Toronto Center (Sault Low Sector): 132.650

CYAV Tower
Winnipeg, Manitoba, Canada

Feed Status: DOWN
Offline since: 2024-04-12 16:23:05 UTC

St. Andrews Tower: 118.500

CYAW ATIS (Archives)
Halifax, Nova Scotia, Canada

Feed Status: UP
Listen in your browser - HTML5 player(in browser, HTML5)
Click here to listen with your own player(launches your MP3 player)

CYAW Flight Activity (Flightaware)

Listeners: 0 out of 3091 total

Shearwater ATIS: 129.175

CYAW Gnd/Twr (Archives)
Halifax, Nova Scotia, Canada

Feed Status: UP
Listen in your browser - HTML5 player(in browser, HTML5)
Click here to listen with your own player(launches your MP3 player)

CYAW Flight Activity (Flightaware)

Listeners: 0 out of 3091 total

Shearwater Ground: 121.700
Shearwater Tower: 126.200

CYAW Gnd/Twr/Ops (Archives)
Halifax, Nova Scotia, Canada

Feed Status: UP
Listen in your browser - HTML5 player(in browser, HTML5)
Click here to listen with your own player(launches your MP3 player)

CYAW Flight Activity (Flightaware)

Listeners: 0 out of 3091 total

Shearwater FDC/Ops: 239.300
Shearwater Ground: 149.350
Shearwater Ground: 121.700
Shearwater Ground: 250.100
Shearwater Tower: 231.950
Shearwater Tower: 126.200
Shearwater Tower: 340.200

CYBP - Brooks
Brooks, Alberta, Canada

Feed Status: DOWN
Offline since: 2024-03-23 23:05:39 UTC

Brooks UNICOM: 122.800
Edmonton Center (North): 132.650
Edmonton Center (South): 125.050

CYBW Ground (Archives)
Calgary, Alberta, Canada

Feed Status: UP
Listen in your browser - HTML5 player(in browser, HTML5)
Click here to listen with your own player(launches your MP3 player)

CYBW 121700Z AUTO 30012G19KT 9SM CLR 12/M03 A2970 RMK SLP084 DENSITY ALT 4800FT

CYBW Flight Activity (Flightaware)

Listeners: 0 out of 3091 total

Springback Ground: 121.800

CYBW Tower (Inner) (Archives)
Calgary, Alberta, Canada

Feed Status: UP
Listen in your browser - HTML5 player(in browser, HTML5)
Click here to listen with your own player(launches your MP3 player)

CYBW 121700Z AUTO 30012G19KT 9SM CLR 12/M03 A2970 RMK SLP084 DENSITY ALT 4800FT

CYBW Flight Activity (Flightaware)

Listeners: 0 out of 3091 total

Springback Tower (Inner): 120.700

CYBW Tower (Outer)
Calgary, Alberta, Canada

Feed Status: DOWN
Offline since: 2024-04-11 00:05:39 UTC

CYBW 121700Z AUTO 30012G19KT 9SM CLR 12/M03 A2970 RMK SLP084 DENSITY ALT 4800FT

Springback Tower (Outer): 118.200

CYCG FSS/ATF/Guard/RDO (Archives)
Castlegar, British Columbia, Canada

Feed Status: UP
Listen in your browser - HTML5 player(in browser, HTML5)
Click here to listen with your own player(launches your MP3 player)

CYCG Flight Activity (Flightaware)

Listeners: 1 out of 3091 total

ATF: 123.200
Emergency/Guard: 121.500
Pacific Radio: 126.700
West Kootenay Regional Radio: 122.100

CYEG Approach (Archives)
Edmonton, Alberta, Canada

Feed Status: UP
Listen in your browser - HTML5 player(in browser, HTML5)
Click here to listen with your own player(launches your MP3 player)

CYEG 121700Z 31011KT 20SM FEW120 FEW250 11/M02 A2968 RMK AC1CI2 AC TR SLP065 DENSITY ALT 2700FT

CYEG Flight Activity (Flightaware)

Listeners: 2 out of 3091 total

Edmonton Approach: 120.500

CYEG Del/Gnd/Misc (Archives)
Edmonton, Alberta, Canada

Feed Status: UP
Listen in your browser - HTML5 player(in browser, HTML5)
Click here to listen with your own player(launches your MP3 player)

CYEG 121700Z 31011KT 20SM FEW120 FEW250 11/M02 A2968 RMK AC1CI2 AC TR SLP065 DENSITY ALT 2700FT

CYEG Flight Activity (Flightaware)

Listeners: 2 out of 3091 total

Edmonton Clearance Delivery: 124.100
Edmonton De-Ice: 122.775
Edmonton Ground: 121.700
Edmonton Radio (FIC): 122.375
Edmonton Radio (FIC): 126.700
Edmonton Radio (FIC): 122.500
Emergency/Guard: 121.500
Iceman: 130.125

CYEG Departure (Archives)
Edmonton, Alberta, Canada

Feed Status: UP
Listen in your browser - HTML5 player(in browser, HTML5)
Click here to listen with your own player(launches your MP3 player)

CYEG 121700Z 31011KT 20SM FEW120 FEW250 11/M02 A2968 RMK AC1CI2 AC TR SLP065 DENSITY ALT 2700FT

CYEG Flight Activity (Flightaware)

Listeners: 2 out of 3091 total


CYEG Tower (Archives)
Edmonton, Alberta, Canada

Feed Status: UP
Listen in your browser - HTML5 player(in browser, HTML5)
Click here to listen with your own player(launches your MP3 player)

CYEG 121700Z 31011KT 20SM FEW120 FEW250 11/M02 A2968 RMK AC1CI2 AC TR SLP065 DENSITY ALT 2700FT

CYEG Flight Activity (Flightaware)

Listeners: 1 out of 3091 total

Edmonton Tower: 118.300

CYEG VFR Advisory (Archives)
Edmonton, Alberta, Canada

Feed Status: UP
Listen in your browser - HTML5 player(in browser, HTML5)
Click here to listen with your own player(launches your MP3 player)

CYEG 121700Z 31011KT 20SM FEW120 FEW250 11/M02 A2968 RMK AC1CI2 AC TR SLP065 DENSITY ALT 2700FT

CYEG Flight Activity (Flightaware)

Listeners: 1 out of 3091 total

Edmonton VFR Advisory: 119.500

CZEG Edmonton Center (FL280/below) (Archives)
Edmonton, Alberta, Canada

Feed Status: UP
Listen in your browser - HTML5 player(in browser, HTML5)
Click here to listen with your own player(launches your MP3 player)

CZEG Flight Activity (Flightaware)

Listeners: 4 out of 3091 total

Edmonton Center (ACC) (FL280 and below): 132.775

CZEG Edmonton Center (Lloydminster Sector) (Archives)
Edmonton, Alberta, Canada

Feed Status: UP
Listen in your browser - HTML5 player(in browser, HTML5)
Click here to listen with your own player(launches your MP3 player)

CZEG Flight Activity (Flightaware)

Listeners: 5 out of 3091 total

Edmonton Center (Lloydminster Sector Hi/Lo): 134.900

CYFB CTAF/RDO (Archives)
Iqaluit, Nunavut, Canada

Feed Status: UP
Listen in your browser - HTML5 player(in browser, HTML5)
Click here to listen with your own player(launches your MP3 player)

CYFB 121700Z 33027KT 30SM BKN015 M10/M14 A2998 RMK SC7 SLP157

CYFB Flight Activity (Flightaware)

Listeners: 1 out of 3091 total

Iqaluit CTAF/Radio: 122.200
Iqaluit Ramp/Taxi Control: 122.925
Quebec Radio FIC: 126.700

CYFB Montreal Center (Archives)
Iqaluit, Nunavut, Canada

Feed Status: UP
Listen in your browser - HTML5 player(in browser, HTML5)
Click here to listen with your own player(launches your MP3 player)

CYFB 121700Z 33027KT 30SM BKN015 M10/M14 A2998 RMK SC7 SLP157

CYFB Flight Activity (Flightaware)

Listeners: 1 out of 3091 total

Montreal Center (Brevoort Sector FL290 and above): 132.800
Montreal Center (Nuvilik Sector FL280 and below): 134.550

CYFB RDO/FIC/Edmonton Ctr (Archives)
Iqaluit, Nunavut, Canada

Feed Status: UP
Listen in your browser - HTML5 player(in browser, HTML5)
Click here to listen with your own player(launches your MP3 player)

CYFB 121700Z 33027KT 30SM BKN015 M10/M14 A2998 RMK SC7 SLP157

CYFB Flight Activity (Flightaware)

Listeners: 1 out of 3091 total

Edmonton Center (Clyde Sector FL230 and above): 118.475
Emergency/Guard: 121.500
Gander Radio: 126.900
Quebec Radio FIC: 123.275

CYFC Ground/Tower (Archives)
Fredericton, New Brunswick, Canada

Feed Status: UP
Listen in your browser - HTML5 player(in browser, HTML5)
Click here to listen with your own player(launches your MP3 player)

CYFC 121724Z AUTO 13008KT 110V170 9SM -RA OVC009 14/13 A2983 RMK SLP102

CYFC Flight Activity (Flightaware)

Listeners: 0 out of 3091 total

Fredericton Ground: 121.700
Fredericton Tower: 119.000

CYFD ATF (CTAF) (Archives)
Brantford, Ontario, Canada

Feed Status: UP
Listen in your browser - HTML5 player(in browser, HTML5)
Click here to listen with your own player(launches your MP3 player)

LWIS CYFD 121728Z AUTO 23017G23KT 62/M106 //// RMK SLP ADVISORY ONLY=

CYFD Flight Activity (Flightaware)

Listeners: 0 out of 3091 total

Brantford ATF (CTAF): 122.825

CYFD ATF (CTAF)/App (Archives)
Brantford, Ontario, Canada

Feed Status: UP
Listen in your browser - HTML5 player(in browser, HTML5)
Click here to listen with your own player(launches your MP3 player)

LWIS CYFD 121728Z AUTO 23017G23KT 62/M106 //// RMK SLP ADVISORY ONLY=

CYFD Flight Activity (Flightaware)

Listeners: 0 out of 3091 total

Brantford ATF (CTAF): 122.825
Toronto Terminal (West Satellite): 119.700

CYHC Del/Twr/App
Vancouver, British Columbia, Canada

Feed Status: DOWN
Offline since: 2024-04-10 19:41:39 UTC

METAR NOT AVAILABLE

Vancouver Harbour Clearance Delivery: 125.350
Vancouver Harbour Tower: 118.400
Vancouver Terminal: 125.200

CYHU Tower (Archives)
Montreal, Quebec, Canada

Feed Status: UP
Listen in your browser - HTML5 player(in browser, HTML5)
Click here to listen with your own player(launches your MP3 player)

CYHU 121700Z AUTO 15024G34KT 9SM CLR 22/14 A2917 RMK SLP879 DENSITY ALT 1900FT

CYHU Flight Activity (Flightaware)

Listeners: 5 out of 3091 total

Saint-Hubert Tower: 121.300
Saint-Hubert Tower: 118.400

CYHZ Del/Gnd/Twr/App (Archives)
Halifax, Nova Scotia, Canada

Feed Status: UP
Listen in your browser - HTML5 player(in browser, HTML5)
Click here to listen with your own player(launches your MP3 player)

CYHZ 121712Z 17018G25KT 1/8SM R23/1100V1200FT/N R14/1400V1800FT/N FG VV001 10/10 A3006 RMK FG8 SLP187

CYHZ Flight Activity (Flightaware)

Listeners: 4 out of 3091 total

Halifax Arrival/Departure: 119.200
Halifax Clearance Delivery: 123.950
Halifax Ground: 121.900
Halifax Terminal (backup): 128.550
Halifax Terminal VFR: 118.700
Halifax Tower: 118.400
London Radio FIC: 123.275
Moncton Center PAL Low: 135.300

CYJN Ground/Tower (Archives)
St. Jean, Quebec, Canada

Feed Status: UP
Listen in your browser - HTML5 player(in browser, HTML5)
Click here to listen with your own player(launches your MP3 player)

CYJN Flight Activity (Flightaware)

Listeners: 0 out of 3091 total

St. Jean Ground: 121.700
St. Jean Tower: 118.200

CYKF Ground (Archives)
Waterloo, Ontario, Canada

Feed Status: UP
Listen in your browser - HTML5 player(in browser, HTML5)
Click here to listen with your own player(launches your MP3 player)

CYKF 121700Z AUTO 26020G30KT 9SM OVC014 07/06 A2914 RMK SLP871 DENSITY ALT 1300FT

CYKF Flight Activity (Flightaware)

Listeners: 0 out of 3091 total

Waterloo Ground: 121.800

CYKF Toronto Center (West Sat) (Archives)
Waterloo, Ontario, Canada

Feed Status: UP
Listen in your browser - HTML5 player(in browser, HTML5)
Click here to listen with your own player(launches your MP3 player)

CYKF 121700Z AUTO 26020G30KT 9SM OVC014 07/06 A2914 RMK SLP871 DENSITY ALT 1300FT

CYKF Flight Activity (Flightaware)

Listeners: 0 out of 3091 total

Toronto Center (West Satellite - Kitchener): 128.275

CYKF Tower (Archives)
Waterloo, Ontario, Canada

Feed Status: UP
Listen in your browser - HTML5 player(in browser, HTML5)
Click here to listen with your own player(launches your MP3 player)

CYKF 121700Z AUTO 26020G30KT 9SM OVC014 07/06 A2914 RMK SLP871 DENSITY ALT 1300FT

CYKF Flight Activity (Flightaware)

Listeners: 1 out of 3091 total

Waterloo Tower: 126.000

CYLW Ground (Archives)
Kelowna, British Columbia, Canada

Feed Status: UP
Listen in your browser - HTML5 player(in browser, HTML5)
Click here to listen with your own player(launches your MP3 player)

CYLW 121700Z AUTO 11003KT 060V180 9SM CLR 10/06 A2987 RMK SLP125

CYLW Flight Activity (Flightaware)

Listeners: 0 out of 3091 total

Kelowna Ground: 121.700

CYLW Tower (Archives)
Kelowna, British Columbia, Canada

Feed Status: UP
Listen in your browser - HTML5 player(in browser, HTML5)
Click here to listen with your own player(launches your MP3 player)

CYLW 121700Z AUTO 11003KT 060V180 9SM CLR 10/06 A2987 RMK SLP125

CYLW Flight Activity (Flightaware)

Listeners: 2 out of 3091 total

Kelowna Tower/Approach: 119.600

CYMJ Radio
Moose Jaw, Saskatchewan, Canada

Feed Status: DOWN
Offline since: 2024-04-02 04:47:22 UTC

CYMJ 121700Z 13023G30KT 15SM FEW160 FEW180 BKN250 15/M07 A2980 RMK AC1AC1CI5 DENSITY ALT 2507FT SLP111

Moose Jaw Arrival: 227.600
Moose Jaw Departure: 234.400
Moose Jaw Ground: 275.800
Moose Jaw Tower (Inner): 295.600
Moose Jaw Tower (Outer): 310.800

CYMX Gnd/Twr/Radio (Archives)
Montreal, Quebec, Canada

Feed Status: UP
Listen in your browser - HTML5 player(in browser, HTML5)
Click here to listen with your own player(launches your MP3 player)

CYMX 121703Z 14011G25KT 090V170 25SM FEW031 BKN055 BKN110 21/14 A2914 RMK SC2SC3AC2 SLP870 DENSITY ALT 1900FT

CYMX Flight Activity (Flightaware)

Listeners: 2 out of 3091 total

Mirabel Ground: 121.800
Mirabel Tower/Radio: 119.100

CYNJ Ground (Archives)
Langley, British Columbia, Canada

Feed Status: UP
Listen in your browser - HTML5 player(in browser, HTML5)
Click here to listen with your own player(launches your MP3 player)

METAR NOT AVAILABLE

CYNJ Flight Activity (Flightaware)

Listeners: 0 out of 3091 total

Langley Ground: 121.900

CYNJ Tower (Archives)
Langley, British Columbia, Canada

Feed Status: UP
Listen in your browser - HTML5 player(in browser, HTML5)
Click here to listen with your own player(launches your MP3 player)

METAR NOT AVAILABLE

CYNJ Flight Activity (Flightaware)

Listeners: 1 out of 3091 total

Langley Tower: 119.000

CYOO Ground (Archives)
Oshawa, Ontario, Canada

Feed Status: UP
Listen in your browser - HTML5 player(in browser, HTML5)
Click here to listen with your own player(launches your MP3 player)

CYOO 121700Z AUTO 22012G23KT 9SM OVC016 07/07 A2909 RMK SLP853 DENSITY ALT 700FT

CYOO Flight Activity (Flightaware)

Listeners: 0 out of 3091 total

Oshawa Ground: 118.400

CYOO Tower (Archives)
Oshawa, Ontario, Canada

Feed Status: UP
Listen in your browser - HTML5 player(in browser, HTML5)
Click here to listen with your own player(launches your MP3 player)

CYOO 121700Z AUTO 22012G23KT 9SM OVC016 07/07 A2909 RMK SLP853 DENSITY ALT 700FT

CYOO Flight Activity (Flightaware)

Listeners: 0 out of 3091 total

Oshawa Tower: 120.100

CYOW Gnd/Twr/App (Archives)
Ottawa, Ontario, Canada

Feed Status: UP
Listen in your browser - HTML5 player(in browser, HTML5)
Click here to listen with your own player(launches your MP3 player)

CYOW 121700Z 21014G28KT 15SM BKN012 BKN050 BKN100 13/12 A2910 RMK SC5SC1AC1 SLP857 DENSITY ALT 1200FT

CYOW Flight Activity (Flightaware)

Listeners: 8 out of 3091 total

De-Icing (Ice Man): 122.350
De-Icing (Pad Control): 122.925
Ottawa Ground: 121.900
Ottawa Terminal: 127.700
Ottawa Terminal (Arrivals): 135.150
Ottawa Terminal (Departures): 128.175
Ottawa Tower: 118.800
Ottawa Tower: 120.100

CYPK Tower (Archives)
Pitt Meadows, British Columbia, Canada

Feed Status: UP
Listen in your browser - HTML5 player(in browser, HTML5)
Click here to listen with your own player(launches your MP3 player)

CYPK Flight Activity (Flightaware)

Listeners: 5 out of 3091 total

Pitt Meadows Tower: 126.300

CYPQ AWOS (Archives)
Peterborough, Ontario, Canada

Feed Status: UP
Listen in your browser - HTML5 player(in browser, HTML5)
Click here to listen with your own player(launches your MP3 player)

CYPQ 121723Z AUTO 23013G25KT 9SM OVC009 08/07 A2906 RMK SLP847 DENSITY ALT 900FT

CYPQ Flight Activity (Flightaware)

Listeners: 0 out of 3091 total

Peterborough AWOS: 126.925

CYPQ Dispatch/UNICOM (Archives)
Peterborough, Ontario, Canada

Feed Status: UP
Listen in your browser - HTML5 player(in browser, HTML5)
Click here to listen with your own player(launches your MP3 player)

CYPQ 121723Z AUTO 23013G25KT 9SM OVC009 08/07 A2906 RMK SLP847 DENSITY ALT 900FT

CYPQ Flight Activity (Flightaware)

Listeners: 0 out of 3091 total

Seneca Dispatch: 122.225

CYPQ Regional/Radar (Archives)
Peterborough, Ontario, Canada

Feed Status: UP
Listen in your browser - HTML5 player(in browser, HTML5)
Click here to listen with your own player(launches your MP3 player)

CYPQ 121723Z AUTO 23013G25KT 9SM OVC009 08/07 A2906 RMK SLP847 DENSITY ALT 900FT

CYPQ Flight Activity (Flightaware)

Listeners: 1 out of 3091 total

Toronto Centre - YYZ ACC (East Radar): 134.250

CYPQ UNICOM/Guard (Archives)
Peterborough, Ontario, Canada

Feed Status: UP
Listen in your browser - HTML5 player(in browser, HTML5)
Click here to listen with your own player(launches your MP3 player)

CYPQ 121723Z AUTO 23013G25KT 9SM OVC009 08/07 A2906 RMK SLP847 DENSITY ALT 900FT

CYPQ Flight Activity (Flightaware)

Listeners: 0 out of 3091 total

Peterborough UNICOM: 123.000

CYQB App/Dep (Terminal/124.0) (Archives)
Quebec, Quebec, Canada

Feed Status: UP
Listen in your browser - HTML5 player(in browser, HTML5)
Click here to listen with your own player(launches your MP3 player)

CYQB 121700Z 06015G25KT 20SM -SHRA FEW006 BKN023 OVC050 10/10 A2944 RMK SF1SC6SC1 OCNL -SHRA PRESFR SLP973

CYQB Flight Activity (Flightaware)

Listeners: 2 out of 3091 total

Quebec Terminal: 124.000

CYQB App/Dep (Terminal/127.85) (Archives)
Quebec, Quebec, Canada

Feed Status: UP
Listen in your browser - HTML5 player(in browser, HTML5)
Click here to listen with your own player(launches your MP3 player)

CYQB 121700Z 06015G25KT 20SM -SHRA FEW006 BKN023 OVC050 10/10 A2944 RMK SF1SC6SC1 OCNL -SHRA PRESFR SLP973

CYQB Flight Activity (Flightaware)

Listeners: 2 out of 3091 total

Quebec Terminal: 127.850

CYQB ATIS (English) (Archives)
Quebec, Quebec, Canada

Feed Status: UP
Listen in your browser - HTML5 player(in browser, HTML5)
Click here to listen with your own player(launches your MP3 player)

CYQB 121700Z 06015G25KT 20SM -SHRA FEW006 BKN023 OVC050 10/10 A2944 RMK SF1SC6SC1 OCNL -SHRA PRESFR SLP973

CYQB Flight Activity (Flightaware)

Listeners: 0 out of 3091 total

Quebec City ATIS (English): 134.600

CYQB ATIS (French) (Archives)
Quebec, Quebec, Canada

Feed Status: UP
Listen in your browser - HTML5 player(in browser, HTML5)
Click here to listen with your own player(launches your MP3 player)

CYQB 121700Z 06015G25KT 20SM -SHRA FEW006 BKN023 OVC050 10/10 A2944 RMK SF1SC6SC1 OCNL -SHRA PRESFR SLP973

CYQB Flight Activity (Flightaware)

Listeners: 2 out of 3091 total

Quebec City ATIS (French): 128.300

CYQB Flight Service (Archives)
Quebec, Quebec, Canada

Feed Status: UP
Listen in your browser - HTML5 player(in browser, HTML5)
Click here to listen with your own player(launches your MP3 player)

CYQB 121700Z 06015G25KT 20SM -SHRA FEW006 BKN023 OVC050 10/10 A2944 RMK SF1SC6SC1 OCNL -SHRA PRESFR SLP973

CYQB Flight Activity (Flightaware)

Listeners: 0 out of 3091 total

Quebec Radio Flight Service: 126.700

CYQB Flight Service (FIS) (Archives)
Quebec, Quebec, Canada

Feed Status: UP
Listen in your browser - HTML5 player(in browser, HTML5)
Click here to listen with your own player(launches your MP3 player)

CYQB 121700Z 06015G25KT 20SM -SHRA FEW006 BKN023 OVC050 10/10 A2944 RMK SF1SC6SC1 OCNL -SHRA PRESFR SLP973

CYQB Flight Activity (Flightaware)

Listeners: 0 out of 3091 total

Quebec Radio Flight Service (FIS): 123.275

CYQB Ground/Tower (Archives)
Quebec, Quebec, Canada

Feed Status: UP
Listen in your browser - HTML5 player(in browser, HTML5)
Click here to listen with your own player(launches your MP3 player)

CYQB 121700Z 06015G25KT 20SM -SHRA FEW006 BKN023 OVC050 10/10 A2944 RMK SF1SC6SC1 OCNL -SHRA PRESFR SLP973

CYQB Flight Activity (Flightaware)

Listeners: 7 out of 3091 total

Quebec City Ground: 121.900

Montreal Center (Drummond/133.225) (Archives)
Quebec, Quebec, Canada

Feed Status: UP
Listen in your browser - HTML5 player(in browser, HTML5)
Click here to listen with your own player(launches your MP3 player)

CYQB 121700Z 06015G25KT 20SM -SHRA FEW006 BKN023 OVC050 10/10 A2944 RMK SF1SC6SC1 OCNL -SHRA PRESFR SLP973

CYQB Flight Activity (Flightaware)

Listeners: 1 out of 3091 total

Montreal Center (Drummond Sector): 133.225

Montreal Center (Drummond/135.025) (Archives)
Quebec, Quebec, Canada

Feed Status: UP
Listen in your browser - HTML5 player(in browser, HTML5)
Click here to listen with your own player(launches your MP3 player)

CYQB 121700Z 06015G25KT 20SM -SHRA FEW006 BKN023 OVC050 10/10 A2944 RMK SF1SC6SC1 OCNL -SHRA PRESFR SLP973

CYQB Flight Activity (Flightaware)

Listeners: 2 out of 3091 total

Montreal Center (Drummond Sector): 135.025

Montreal Center (Levis/123.925) (Archives)
Quebec, Quebec, Canada

Feed Status: UP
Listen in your browser - HTML5 player(in browser, HTML5)
Click here to listen with your own player(launches your MP3 player)

CYQB 121700Z 06015G25KT 20SM -SHRA FEW006 BKN023 OVC050 10/10 A2944 RMK SF1SC6SC1 OCNL -SHRA PRESFR SLP973

CYQB Flight Activity (Flightaware)

Listeners: 1 out of 3091 total

Montreal Center (Levis Sector): 123.925

CYQG Gnd/Twr/App/Misc (Archives)
Windsor, Ontario, Canada

Feed Status: UP
Listen in your browser - HTML5 player(in browser, HTML5)
Click here to listen with your own player(launches your MP3 player)

CYQG 121724Z AUTO 29019G30KT 9SM -RA BKN022 OVC030 09/07 A2939 RMK SLP957

CYQG Flight Activity (Flightaware)

Listeners: 1 out of 3091 total

Detroit Approach: 134.300
Great Lakes ESSO: 122.950
Jazz Air: 131.775
London RCO: 123.375
Windsor Ground: 121.700
Windsor Tower: 124.700

CYQI CTAF/UNICOM (Archives)
Yarmouth, Nova Scotia, Canada

Feed Status: UP
Listen in your browser - HTML5 player(in browser, HTML5)
Click here to listen with your own player(launches your MP3 player)

CYQI 121719Z 17018G27KT 3SM -RA BR OVC002 12/12 A2990 RMK SF8 SLP128

CYQI Flight Activity (Flightaware)

Listeners: 0 out of 3091 total

Yarmouth CTAF/UNICOM: 123.000

CYQI Halifax FIC (Archives)
Yarmouth, Nova Scotia, Canada

Feed Status: UP
Listen in your browser - HTML5 player(in browser, HTML5)
Click here to listen with your own player(launches your MP3 player)

CYQI 121719Z 17018G27KT 3SM -RA BR OVC002 12/12 A2990 RMK SF8 SLP128

CYQI Flight Activity (Flightaware)

Listeners: 0 out of 3091 total

Halifax FIC (CYQI Area): 126.700

CYQI Wildfire/SAR Aircraft (Archives)
Yarmouth, Nova Scotia, Canada

Feed Status: UP
Listen in your browser - HTML5 player(in browser, HTML5)
Click here to listen with your own player(launches your MP3 player)

CYQI 121719Z 17018G27KT 3SM -RA BR OVC002 12/12 A2990 RMK SF8 SLP128

CYQI Flight Activity (Flightaware)

Listeners: 1 out of 3091 total

Provincial Aircraft/Wildfires/SAR: 122.400

Moncton Center (TUSKY/BRADD High) (Archives)
Yarmouth, Nova Scotia, Canada

Feed Status: UP
Listen in your browser - HTML5 player(in browser, HTML5)
Click here to listen with your own player(launches your MP3 player)

CYQI 121719Z 17018G27KT 3SM -RA BR OVC002 12/12 A2990 RMK SF8 SLP128

CYQI Flight Activity (Flightaware)

Listeners: 0 out of 3091 total

Moncton Center (TUSKY/BRADD Sector): 135.200

Moncton Center (TUSKY/BRADD/WHALE/KANNNI) (Archives)
Yarmouth, Nova Scotia, Canada

Feed Status: UP
Listen in your browser - HTML5 player(in browser, HTML5)
Click here to listen with your own player(launches your MP3 player)

CYQI 121719Z 17018G27KT 3SM -RA BR OVC002 12/12 A2990 RMK SF8 SLP128

CYQI Flight Activity (Flightaware)

Listeners: 0 out of 3091 total

Moncton Center (TUSKY/BRADD Sector): 135.200
Moncton Center (WHALE /KANNI Sector): 132.975

Moncton Center (VITOL/High) (Archives)
Yarmouth, Nova Scotia, Canada

Feed Status: UP
Listen in your browser - HTML5 player(in browser, HTML5)
Click here to listen with your own player(launches your MP3 player)

CYQI 121719Z 17018G27KT 3SM -RA BR OVC002 12/12 A2990 RMK SF8 SLP128

CYQI Flight Activity (Flightaware)

Listeners: 1 out of 3091 total

Moncton Center (Vitol Sector): 128.375

Moncton Center (WHALE/KANNI High) (Archives)
Yarmouth, Nova Scotia, Canada

Feed Status: UP
Listen in your browser - HTML5 player(in browser, HTML5)
Click here to listen with your own player(launches your MP3 player)

CYQI 121719Z 17018G27KT 3SM -RA BR OVC002 12/12 A2990 RMK SF8 SLP128

CYQI Flight Activity (Flightaware)

Listeners: 0 out of 3091 total

Moncton Center (WHALE /KANNI Sector): 132.975

CYQM App/Dep (Archives)
Moncton, New Brunswick, Canada

Feed Status: UP
Listen in your browser - HTML5 player(in browser, HTML5)
Click here to listen with your own player(launches your MP3 player)

CYQM 121700Z 17014G27KT 15SM SCT010 BKN035 BKN240 15/12 A2994 RMK CF3SC2CI1 PRESFR SLP141

CYQM Flight Activity (Flightaware)

Listeners: 0 out of 3091 total

Moncton Radar: 124.400

CYQM Gnd/Twr/Misc (Archives)
Moncton, New Brunswick, Canada

Feed Status: UP
Listen in your browser - HTML5 player(in browser, HTML5)
Click here to listen with your own player(launches your MP3 player)

CYQM 121700Z 17014G27KT 15SM SCT010 BKN035 BKN240 15/12 A2994 RMK CF3SC2CI1 PRESFR SLP141

CYQM Flight Activity (Flightaware)

Listeners: 1 out of 3091 total

London FIC RCO: 122.500
London FIC RCO: 126.700
Moncton Flight College: 123.350
Moncton Ground: 121.800
Moncton Tower: 120.800

CYQM Moncton Center High (Archives)
Moncton, New Brunswick, Canada

Feed Status: UP
Listen in your browser - HTML5 player(in browser, HTML5)
Click here to listen with your own player(launches your MP3 player)

CZQM Flight Activity (Flightaware)

Listeners: 2 out of 3091 total

Moncton Center (Freddy Sector, High): 132.700
Moncton Center (Fundy Sector, High): 127.125
Moncton Center (Miils Sector): 133.875

CYQM Moncton Center Low (Archives)
Moncton, New Brunswick, Canada

Feed Status: UP
Listen in your browser - HTML5 player(in browser, HTML5)
Click here to listen with your own player(launches your MP3 player)

CZQM Flight Activity (Flightaware)

Listeners: 3 out of 3091 total

Moncton Center: 132.500
Moncton Center (Digby Sector, Low): 132.200

CYQR Gnd/Twr/Center (Archives)
Regina, Saskatchewan, Canada

Feed Status: UP
Listen in your browser - HTML5 player(in browser, HTML5)
Click here to listen with your own player(launches your MP3 player)

CYQR 121700Z 14020G25KT 15SM BKN170 BKN270 12/M06 A2988 RMK AC6CI1 SLP137 DENSITY ALT 2100FT

CYQR Flight Activity (Flightaware)

Listeners: 6 out of 3091 total

Regina Ground: 121.900
Regina Tower: 118.600
Winnipeg Centre: 120.100
Winnipeg Centre (Great Plains Sector): 123.800

CYQT Ground/Tower
Thunder Bay, Ontario, Canada

Feed Status: DOWN
Offline since: 2024-04-09 18:18:04 UTC

CYQT 121700Z 33015G24KT 290V360 20SM SCT040 BKN250 10/00 A2984 RMK SC4CI2 CU ASOCTD SLP112

Thunder Bay Ground: 121.900
Thunder Bay Tower: 118.100

CYRQ CTAF (Archives)
Trois-Rivieres, Quebec, Canada

Feed Status: UP
Listen in your browser - HTML5 player(in browser, HTML5)
Click here to listen with your own player(launches your MP3 player)

CYRQ 121700Z AUTO 08009G15KT 9SM FEW060 BKN160 15/13 A2928 RMK SLP918 DENSITY ALT 1000FT

CYRQ Flight Activity (Flightaware)

Listeners: 0 out of 3091 total

Trois-Rivieres CTAF/UNICOM: 122.350

CYRQ/CSR3 CTAF (Archives)
Trois-Rivieres, Quebec, Canada

Feed Status: UP
Listen in your browser - HTML5 player(in browser, HTML5)
Click here to listen with your own player(launches your MP3 player)

CYRQ 121700Z AUTO 08009G15KT 9SM FEW060 BKN160 15/13 A2928 RMK SLP918 DENSITY ALT 1000FT

CYRQ Flight Activity (Flightaware)

Listeners: 0 out of 3091 total

Trois-Rivieres CTAF/UNICOM: 122.350
Victoriaville CTAF/UNICOM: 123.350

CYSB Gnd/Twr/Center (Archives)
Sudbury, Ontario, Canada

Feed Status: UP
Listen in your browser - HTML5 player(in browser, HTML5)
Click here to listen with your own player(launches your MP3 player)

CYSB 121700Z 36018G26KT 3SM -RA BR OVC010 06/05 A2896 RMK SF8 SLP818 DENSITY ALT 1500FT

CYSB Flight Activity (Flightaware)

Listeners: 2 out of 3091 total

Sudbury Ground: 121.800
Sudbury Tower: 125.500
Toronto Centre: 135.500

CYSC AWOS
Sherbrooke, Quebec, Canada

Feed Status: DOWN
Offline since: 2024-04-02 23:26:04 UTC

CYSC 121700Z AUTO 14020G28KT 9SM SCT060 16/11 A2934 RMK SLP940 DENSITY ALT 1900FT

Sherbrooke AWOS: 126.250

CYSC CTAF
Sherbrooke, Quebec, Canada

Feed Status: DOWN
Offline since: 2024-04-02 23:26:04 UTC

CYSC 121700Z AUTO 14020G28KT 9SM SCT060 16/11 A2934 RMK SLP940 DENSITY ALT 1900FT

Sherbrooke CTAF: 123.500

CYSC Emergency/Guard
Sherbrooke, Quebec, Canada

Feed Status: DOWN
Offline since: 2024-04-02 23:26:04 UTC

CYSC 121700Z AUTO 14020G28KT 9SM SCT060 16/11 A2934 RMK SLP940 DENSITY ALT 1900FT

Emergency/Guard: 121.500

CYSC RCO/GCO
Sherbrooke, Quebec, Canada

Feed Status: DOWN
Offline since: 2024-04-02 23:26:04 UTC

CYSC 121700Z AUTO 14020G28KT 9SM SCT060 16/11 A2934 RMK SLP940 DENSITY ALT 1900FT

Sherbrooke RCO/GCO: 123.250

CYSC ZUL 132.55
Sherbrooke, Quebec, Canada

Feed Status: DOWN
Offline since: 2024-04-02 23:26:04 UTC

CYSC 121700Z AUTO 14020G28KT 9SM SCT060 16/11 A2934 RMK SLP940 DENSITY ALT 1900FT

Montreal Center: 132.550

CYSC ZUL 133.225
Sherbrooke, Quebec, Canada

Feed Status: DOWN
Offline since: 2024-04-02 23:26:04 UTC

CYSC 121700Z AUTO 14020G28KT 9SM SCT060 16/11 A2934 RMK SLP940 DENSITY ALT 1900FT

Montreal Center: 133.225

CYTS ATIS
Timmins, Ontario, Canada

Feed Status: DOWN
Offline since: 2023-06-29 22:56:38 UTC

CYTS 121700Z 35022G36KT 5SM -RASN OVC010 05/04 A2925 RMK SC8 SLP917

Timmins ATIS: 124.950

CYTS FSS/Misc (Archives)
Timmins, Ontario, Canada

Feed Status: UP
Listen in your browser - HTML5 player(in browser, HTML5)
Click here to listen with your own player(launches your MP3 player)

CYTS 121700Z 35022G36KT 5SM -RASN OVC010 05/04 A2925 RMK SC8 SLP917

CYTS Flight Activity (Flightaware)

Listeners: 2 out of 3091 total

Air Canada Jazz: 130.875
Air Creebec: 129.050
CTAF: 122.200
CTAF: 122.000
CTAF: 122.800
Field Maintenance: 122.600
FSS: 122.300
General Traffic: 126.700
London RDO: 123.550
South Porcupine: 123.300

CZUL ACC (Noranda Sector) (Archives)
Timmins, Ontario, Canada

Feed Status: UP
Listen in your browser - HTML5 player(in browser, HTML5)
Click here to listen with your own player(launches your MP3 player)

CYUL 121700Z 15018G30KT 15SM FEW065 SCT090 BKN120 BKN180 22/14 A2915 RMK SC1AC2AC3AC1 CU ASOCTD PRESFR SLP871 DENSITY ALT 1800FT

CYUL Flight Activity (Flightaware)

Listeners: 2 out of 3091 total

Montreal Center (Brevoort Sector) : 133.200
Montreal Center (Brevoort Sector) : 134.850
Montreal Center (Brevoort Sector) : 132.800
Montreal Center (Caniapiscau Sector) : 119.400
Montreal Center (Chibougamau Sector) : 133.025
Montreal Center (Fontages Sector) : 134.325
Montreal Center (LaGrande Sector) : 133.775
Montreal Center (Moosonee Sector*) : 118.975
Montreal Center (Noranda Sector) : 133.975
Montreal Center (Rouyn Sector*): 120.725
Montreal Center (Unknown Sector) : 132.675

Toronto Center (Timmins) (Archives)
Timmins, Ontario, Canada

Feed Status: UP
Listen in your browser - HTML5 player(in browser, HTML5)
Click here to listen with your own player(launches your MP3 player)

CZYZ Flight Activity (Flightaware)

Listeners: 2 out of 3091 total

Moosonee CYMO: 133.725
North Bay CYYB (8pm-7am M-F and 24h Sat-Sun): 127.250
Sudbury CYSB (8pm-7am M-F and 24h Sat-Sun): 135.500
Toronto Center (North Bay High Sector): 121.225
Toronto Center (Sault High Sector): 134.425
Toronto Center (Sault Low Elliot Lake Sector): 135.400
Toronto Center (Timmins Sector): 128.300
Toronto Center (Wawa Sector): 124.075

CYTZ Approach (Archives)
Toronto, Ontario, Canada

Feed Status: UP
Listen in your browser - HTML5 player(in browser, HTML5)
Click here to listen with your own player(launches your MP3 player)

CYTZ 121718Z AUTO 24016G24KT 9SM OVC024 08/06 A2912 RMK SLP865 DENSITY ALT 500FT

CYTZ Flight Activity (Flightaware)

Listeners: 0 out of 3091 total

Toronto Terminal (East): 133.400

CYTZ Tower
Toronto, Ontario, Canada

Feed Status: DOWN
Offline since: 2024-04-06 07:20:39 UTC

CYTZ 121718Z AUTO 24016G24KT 9SM OVC024 08/06 A2912 RMK SLP865 DENSITY ALT 500FT


Toronto Terminal (West Satellite) #1 (Archives)
Toronto, Ontario, Canada

Feed Status: UP
Listen in your browser - HTML5 player(in browser, HTML5)
Click here to listen with your own player(launches your MP3 player)

CYTZ 121718Z AUTO 24016G24KT 9SM OVC024 08/06 A2912 RMK SLP865 DENSITY ALT 500FT

CYTZ Flight Activity (Flightaware)

Listeners: 1 out of 3091 total

Toronto Terminal (West Satellite): 119.300

CYUL Approach/Departure (Archives)
Montreal, Quebec, Canada

Feed Status: UP
Listen in your browser - HTML5 player(in browser, HTML5)
Click here to listen with your own player(launches your MP3 player)

CYUL 121700Z 15018G30KT 15SM FEW065 SCT090 BKN120 BKN180 22/14 A2915 RMK SC1AC2AC3AC1 CU ASOCTD PRESFR SLP871 DENSITY ALT 1800FT

CYUL Flight Activity (Flightaware)

Listeners: 6 out of 3091 total

Montreal Terminal: 126.900
Montreal Terminal: 124.650
Montreal Terminal: 118.900
Montreal Terminal: 132.850
Montreal Terminal: 125.150
Montreal Terminal: 120.425
VFR Advisory: 134.150

CYUL De-icing Ops (Archives)
Montreal, Quebec, Canada

Feed Status: UP
Listen in your browser - HTML5 player(in browser, HTML5)
Click here to listen with your own player(launches your MP3 player)

CYUL 121700Z 15018G30KT 15SM FEW065 SCT090 BKN120 BKN180 22/14 A2915 RMK SC1AC2AC3AC1 CU ASOCTD PRESFR SLP871 DENSITY ALT 1800FT

CYUL Flight Activity (Flightaware)

Listeners: 1 out of 3091 total

Emergency Comms: 123.175
Emergency Comms: 122.675
Emergency/Guard: 121.500
Montreal De-icing Coordinator: 123.125
Montreal De-icing Traffic: 122.525

CYUL Del/Ground/Apron (Archives)
Montreal, Quebec, Canada

Feed Status: UP
Listen in your browser - HTML5 player(in browser, HTML5)
Click here to listen with your own player(launches your MP3 player)

CYUL 121700Z 15018G30KT 15SM FEW065 SCT090 BKN120 BKN180 22/14 A2915 RMK SC1AC2AC3AC1 CU ASOCTD PRESFR SLP871 DENSITY ALT 1800FT

CYUL Flight Activity (Flightaware)

Listeners: 5 out of 3091 total

Montreal Apron: 122.075
Montreal Clearance Delivery: 125.600
Montreal Ground (East): 121.900
Montreal Ground (West): 121.000

CYUL Tower (Archives)
Montreal, Quebec, Canada

Feed Status: UP
Listen in your browser - HTML5 player(in browser, HTML5)
Click here to listen with your own player(launches your MP3 player)

CYUL 121700Z 15018G30KT 15SM FEW065 SCT090 BKN120 BKN180 22/14 A2915 RMK SC1AC2AC3AC1 CU ASOCTD PRESFR SLP871 DENSITY ALT 1800FT

CYUL Flight Activity (Flightaware)

Listeners: 6 out of 3091 total

Montreal Tower: 119.900
Montreal Tower: 119.300
Montreal Tower: 124.300

CZUL Center (Montreal) (Archives)
Montreal, Quebec, Canada

Feed Status: UP
Listen in your browser - HTML5 player(in browser, HTML5)
Click here to listen with your own player(launches your MP3 player)

CYUL 121700Z 15018G30KT 15SM FEW065 SCT090 BKN120 BKN180 22/14 A2915 RMK SC1AC2AC3AC1 CU ASOCTD PRESFR SLP871 DENSITY ALT 1800FT

CYUL Flight Activity (Flightaware)

Listeners: 2 out of 3091 total

Montreal Center (Aylmer Sector - FL290 and above): 134.400
Montreal Center (Drummond Sector - FL280 and above): 133.225
Montreal Center (Granby Sector - FL280 and above): 132.350
Montreal Center (Granby Sector - FL280 and below): 132.550
Montreal Center (Laurier Sector - FL280 and below): 126.575
Montreal Center (Laurier Sector - FL290 and below): 135.600
Montreal Center (Levis Sector - FL290 and above): 123.925
Montreal Center (Pontiac Sector - FL290 and above): 127.875
Montreal Center (Rawdon Sector - FL290 and below): 128.225
Montreal Center (Thurso Sector - FL280 and below): 128.775

CZUL Center (Vallie Sector) (Archives)
Montreal, Quebec, Canada

Feed Status: UP
Listen in your browser - HTML5 player(in browser, HTML5)
Click here to listen with your own player(launches your MP3 player)

CZUL Flight Activity (Flightaware)

Listeners: 1 out of 3091 total

Montreal Center (Vallie Sector FL280/below): 134.975

CYVK CTAF/UNICOM
Vernon, British Columbia, Canada

Feed Status: DOWN
Offline since: 2023-12-02 18:51:05 UTC

Vernon CTAF/UNICOM: 122.800

CYVO Gnd/RDO/Center (Archives)
Val-D'Or, Quebec, Canada

Feed Status: UP
Listen in your browser - HTML5 player(in browser, HTML5)
Click here to listen with your own player(launches your MP3 player)

CYVO 121700Z 08008KT 10SM -RA OVC007 12/12 A2902 RMK NS8 SLP837 DENSITY ALT 2100FT

CYVO Flight Activity (Flightaware)

Listeners: 2 out of 3091 total

Emergency/Guard: 121.500
Montreal Centre: 125.900
Rouyn RDO (FSS): 118.500
Val-d'Or Ground Services: 122.600
Val-D'Or VFR En Route: 126.700

CYVR App/Dep #1 (Archives)
Vancouver, British Columbia, Canada

Feed Status: UP
Listen in your browser - HTML5 player(in browser, HTML5)
Click here to listen with your own player(launches your MP3 player)

CYVR 121700Z 31009KT 8SM -RA OVC010 08/08 A2994 RMK SC8 SLP140

CYVR Flight Activity (Flightaware)

Listeners: 7 out of 3091 total

Vancouver Terminal (Arrival High Outer): 128.600
Vancouver Terminal (Arrival Inner): 134.225
Vancouver Terminal (Arrival Low Inner): 133.100
Vancouver Terminal (Arrival Outer): 128.175
Vancouver Terminal (Departure North): 126.125
Vancouver Terminal (Departure South): 132.300
Vancouver Terminal (Departure South): 132.300
Vancouver Terminal (TRSA): 125.200

CYVR App/Dep #2 (Archives)
Vancouver, British Columbia, Canada

Feed Status: UP
Listen in your browser - HTML5 player(in browser, HTML5)
Click here to listen with your own player(launches your MP3 player)

CYVR 121700Z 31009KT 8SM -RA OVC010 08/08 A2994 RMK SC8 SLP140

CYVR Flight Activity (Flightaware)

Listeners: 1 out of 3091 total

Vancouver Terminal (Arrival High Outer): 128.600
Vancouver Terminal (Arrival Low Inner): 133.100
Vancouver Terminal (Departure North): 126.125
Vancouver Terminal (Departure South): 132.300
Vancouver Terminal (ILS Monitor): 120.500
Vancouver Terminal (ILS Monitor): 128.175
Vancouver Terminal (TRSA): 125.200

CYVR Del/Gnd (Archives)
Vancouver, British Columbia, Canada

Feed Status: UP
Listen in your browser - HTML5 player(in browser, HTML5)
Click here to listen with your own player(launches your MP3 player)

CYVR 121700Z 31009KT 8SM -RA OVC010 08/08 A2994 RMK SC8 SLP140

CYVR Flight Activity (Flightaware)

Listeners: 1 out of 3091 total

Emergency (Discrete): 122.675
Vancouver Clearance Delivery: 121.400
Vancouver Ground (North): 121.700
Vancouver Ground (South): 127.150

CYVR Del/Gnd/Twr #1 (Archives)
Vancouver, British Columbia, Canada

Feed Status: UP
Listen in your browser - HTML5 player(in browser, HTML5)
Click here to listen with your own player(launches your MP3 player)

CYVR 121700Z 31009KT 8SM -RA OVC010 08/08 A2994 RMK SC8 SLP140

CYVR Flight Activity (Flightaware)

Listeners: 9 out of 3091 total

Emergency (Discrete): 122.675
Vancouver Clearance Delivery: 121.400
Vancouver Ground (North): 121.700
Vancouver Ground (South): 127.150
Vancouver Tower (Backup): 120.150
Vancouver Tower (North): 119.550
Vancouver Tower (Outer): 124.000
Vancouver Tower (South): 118.700
Vancouver Tower (VFR): 125.650

CYVR Del/Gnd/Twr/App (Archives)
Vancouver, British Columbia, Canada

Feed Status: UP
Listen in your browser - HTML5 player(in browser, HTML5)
Click here to listen with your own player(launches your MP3 player)

CYVR 121700Z 31009KT 8SM -RA OVC010 08/08 A2994 RMK SC8 SLP140

CYVR Flight Activity (Flightaware)

Listeners: 0 out of 3091 total

Vancouver Clearance Delivery: 121.400
Vancouver Ground (North): 127.150
Vancouver Ground (South): 121.700
Vancouver Terminal (Departures): 132.300
Vancouver Terminal (Departures): 126.125
Vancouver Terminal (Hi, Outer): 128.600
Vancouver Terminal (ILS Monitor): 128.175
Vancouver Terminal (Lo, Inner): 133.100
Vancouver Terminal (TRSA): 125.200
Vancouver Tower: 125.650
Vancouver Tower (Backup): 120.150
Vancouver Tower (North): 119.550
Vancouver Tower (Outer): 124.000
Vancouver Tower (South): 118.700

CYVR Tower (Archives)
Vancouver, British Columbia, Canada

Feed Status: UP
Listen in your browser - HTML5 player(in browser, HTML5)
Click here to listen with your own player(launches your MP3 player)

CYVR 121700Z 31009KT 8SM -RA OVC010 08/08 A2994 RMK SC8 SLP140

CYVR Flight Activity (Flightaware)

Listeners: 0 out of 3091 total

Vancouver Tower (Backup): 120.150
Vancouver Tower (North): 119.550
Vancouver Tower (Outer): 124.000
Vancouver Tower (South): 118.700
Vancouver Tower (VFR): 125.650

CZVR Vancouver ACC (Archives)
Vancouver, British Columbia, Canada

Feed Status: UP
Listen in your browser - HTML5 player(in browser, HTML5)
Click here to listen with your own player(launches your MP3 player)

CYVR 121700Z 31009KT 8SM -RA OVC010 08/08 A2994 RMK SC8 SLP140

CYVR Flight Activity (Flightaware)

Listeners: 6 out of 3091 total

ARINC En Route (SFO): 129.400
Vancouver East (Bruce Peak): 125.950
Vancouver East (Simulcast): 135.325
Vancouver East (Vancouver): 133.700
Vancouver North (Bruce Peak): 134.400
Vancouver North (Simulcast): 127.925
Vancouver West (Tofino): 132.900
Vancouver West (Tofino): 134.925
Vancouver West (Vancouver): 134.800

CYWG App/Dep (Archives)
Winnipeg, Manitoba, Canada

Feed Status: UP
Listen in your browser - HTML5 player(in browser, HTML5)
Click here to listen with your own player(launches your MP3 player)

CYWG 121700Z 08006KT 050V130 15SM FEW040 BKN250 08/00 A3009 RMK CU2CI5 SLP203

CYWG Flight Activity (Flightaware)

Listeners: 1 out of 3091 total

Winnipeg Approach/Departure: 119.500
Winnipeg Approach/Departure: 119.900
Winnipeg Approach/Departure: 121.000

CYWG ATIS (Archives)
Winnipeg, Manitoba, Canada

Feed Status: UP
Listen in your browser - HTML5 player(in browser, HTML5)
Click here to listen with your own player(launches your MP3 player)

CYWG 121700Z 08006KT 050V130 15SM FEW040 BKN250 08/00 A3009 RMK CU2CI5 SLP203

CYWG Flight Activity (Flightaware)

Listeners: 2 out of 3091 total

Winnipeg ATIS: 120.200

CYWG Center (Archives)
Winnipeg, Manitoba, Canada

Feed Status: UP
Listen in your browser - HTML5 player(in browser, HTML5)
Click here to listen with your own player(launches your MP3 player)

CYWG 121700Z 08006KT 050V130 15SM FEW040 BKN250 08/00 A3009 RMK CU2CI5 SLP203

CYWG Flight Activity (Flightaware)

Listeners: 9 out of 3091 total

Winnipeg Center: 132.250
Winnipeg Center: 134.400

CYWG Del/Gnd/Twr (Archives)
Winnipeg, Manitoba, Canada

Feed Status: UP
Listen in your browser - HTML5 player(in browser, HTML5)
Click here to listen with your own player(launches your MP3 player)

CYWG 121700Z 08006KT 050V130 15SM FEW040 BKN250 08/00 A3009 RMK CU2CI5 SLP203

CYWG Flight Activity (Flightaware)

Listeners: 5 out of 3091 total

Winnipeg Clearance: 121.300
Winnipeg Ground: 121.900
Winnipeg Tower: 118.300

CYWH FISE/Terminal (Archives)
Victoria, British Columbia, Canada

Feed Status: UP
Listen in your browser - HTML5 player(in browser, HTML5)
Click here to listen with your own player(launches your MP3 player)

CYWH 121700Z 35008KT 15SM FEW014 BKN033 OVC060 08/05 A2993 RMK SC2SC4SC2 SLP137

CYWH Flight Activity (Flightaware)

Listeners: 0 out of 3091 total

Pacific Radio (FISE): 125.850
Victoria Harbour Radio: 122.200
Victoria Terminal: 127.800

CYYC App/Dep (Archives)
Calgary, Alberta, Canada

Feed Status: UP
Listen in your browser - HTML5 player(in browser, HTML5)
Click here to listen with your own player(launches your MP3 player)

CYYC 121700Z 30010KT 260V320 40SM FEW070 BKN250 12/M05 A2970 RMK AC1CI6 CONTRAILS SLP075 DENSITY ALT 4400FT

CYYC Flight Activity (Flightaware)

Listeners: 1 out of 3091 total

Calgary Arrivals: 125.900
Calgary Departures: 119.800

CYYC Tower #1 (Archives)
Calgary, Alberta, Canada

Feed Status: UP
Listen in your browser - HTML5 player(in browser, HTML5)
Click here to listen with your own player(launches your MP3 player)

CYYC 121700Z 30010KT 260V320 40SM FEW070 BKN250 12/M05 A2970 RMK AC1CI6 CONTRAILS SLP075 DENSITY ALT 4400FT

CYYC Flight Activity (Flightaware)

Listeners: 1 out of 3091 total

Calgary Tower: 118.400

CYYC Twr/App/Center
Calgary, Alberta, Canada

Feed Status: DOWN
Offline since: 2023-06-14 23:14:05 UTC

CYYC 121700Z 30010KT 260V320 40SM FEW070 BKN250 12/M05 A2970 RMK AC1CI6 CONTRAILS SLP075 DENSITY ALT 4400FT

Calgary Arrivals: 125.900
Calgary Departures: 119.800
Calgary Tower: 118.400
Edmonton Center (Banff Sector): 133.300

CYYC Twr/App/Dep (Archives)
Calgary, Alberta, Canada

Feed Status: UP
Listen in your browser - HTML5 player(in browser, HTML5)
Click here to listen with your own player(launches your MP3 player)

CYYC 121700Z 30010KT 260V320 40SM FEW070 BKN250 12/M05 A2970 RMK AC1CI6 CONTRAILS SLP075 DENSITY ALT 4400FT

CYYC Flight Activity (Flightaware)

Listeners: 1 out of 3091 total

Calgary Arrivals: 125.900
Calgary Departures: 119.800
Calgary Tower: 118.400

CYYR Del/Gnd/Twr/App #1 (Archives)
Goose Bay, Newfoundland, Canada

Feed Status: UP
Listen in your browser - HTML5 player(in browser, HTML5)
Click here to listen with your own player(launches your MP3 player)

CYYR 121700Z 26003KT 15SM -RA FEW005 SCT012 OVC025 07/06 A2996 RMK SF1SC2SC5 DENSITY ALT -723FT VIS LWR N QUAD CIG EST SLP148

CYYR Flight Activity (Flightaware)

Listeners: 3 out of 3091 total

Goose Bay Clearance Delivery: 118.100
Goose Bay Ground: 121.900
Goose Bay Terminal: 119.500
Goose Bay Tower: 119.100
Halifax Radio: 126.700
Halifax Radio (FIS): 123.475
PAR: 119.900
Ranger Base: 129.300
Wing Ops: 129.850

CYYR Del/Gnd/Twr/App #2 (Archives)
Goose Bay, Newfoundland, Canada

Feed Status: UP
Listen in your browser - HTML5 player(in browser, HTML5)
Click here to listen with your own player(launches your MP3 player)

CYYR 121700Z 26003KT 15SM -RA FEW005 SCT012 OVC025 07/06 A2996 RMK SF1SC2SC5 DENSITY ALT -723FT VIS LWR N QUAD CIG EST SLP148

CYYR Flight Activity (Flightaware)

Listeners: 1 out of 3091 total

Goose Bay Clearance Delivery: 118.100
Goose Bay Ground: 121.900
Goose Bay Terminal: 119.500
Goose Bay Tower: 119.100
Halifax Radio: 126.700
Halifax Radio (FIS): 123.475
PAR: 119.900
Ranger Base: 129.300
Wing Ops: 129.850

CYYR Del/Gnd/Twr/App/Center (Archives)
Goose Bay, Newfoundland, Canada

Feed Status: UP
Listen in your browser - HTML5 player(in browser, HTML5)
Click here to listen with your own player(launches your MP3 player)

CYYR 121700Z 26003KT 15SM -RA FEW005 SCT012 OVC025 07/06 A2996 RMK SF1SC2SC5 DENSITY ALT -723FT VIS LWR N QUAD CIG EST SLP148

CYYR Flight Activity (Flightaware)

Listeners: 3 out of 3091 total

Gander Center (FL280 and below): 120.400
Gander Center (FL290 and above): 133.425
Gander Center (FL290 and above): 132.400
Gander Center (FL290 and above): 127.675
Goose Bay Clearance Delivery: 118.100
Goose Bay Ground: 121.900
Goose Bay Terminal: 119.500
Goose Bay Tower: 119.100
Halifax Radio: 126.700
Halifax Radio (FIS): 123.475
PAR: 119.900
Ranger Base: 129.300
Wing Ops: 129.850

CYYR Gander Center (Archives)
Goose Bay, Newfoundland, Canada

Feed Status: UP
Listen in your browser - HTML5 player(in browser, HTML5)
Click here to listen with your own player(launches your MP3 player)

CYYR 121700Z 26003KT 15SM -RA FEW005 SCT012 OVC025 07/06 A2996 RMK SF1SC2SC5 DENSITY ALT -723FT VIS LWR N QUAD CIG EST SLP148

CYYR Flight Activity (Flightaware)

Listeners: 3 out of 3091 total

Gander Center (FL280 and below): 120.400
Gander Center (FL290 and above): 127.675
Gander Center (FL290 and above): 132.400
Gander Center (FL290 and above): 133.425

CYYT ATIS (Archives)
St. John's, Newfoundland, Canada

Feed Status: UP
Listen in your browser - HTML5 player(in browser, HTML5)
Click here to listen with your own player(launches your MP3 player)

CYYT 121700Z 26017G22KT 15SM FEW040 FEW080 FEW140 BKN220 OVC240 07/M03 A3043 RMK SC1AC1AC1CI3CI3 SC TR SLP314

CYYT Flight Activity (Flightaware)

Listeners: 1 out of 3091 total

St. John's ATIS: 128.000

CYYT Ground (Archives)
St. John's, Newfoundland, Canada

Feed Status: UP
Listen in your browser - HTML5 player(in browser, HTML5)
Click here to listen with your own player(launches your MP3 player)

CYYT 121700Z 26017G22KT 15SM FEW040 FEW080 FEW140 BKN220 OVC240 07/M03 A3043 RMK SC1AC1AC1CI3CI3 SC TR SLP314

CYYT Flight Activity (Flightaware)

Listeners: 1 out of 3091 total

St. John's Ground: 121.900

CYYT Ground/Tower (Archives)
St. John's, Newfoundland, Canada

Feed Status: UP
Listen in your browser - HTML5 player(in browser, HTML5)
Click here to listen with your own player(launches your MP3 player)

CYYT 121700Z 26017G22KT 15SM FEW040 FEW080 FEW140 BKN220 OVC240 07/M03 A3043 RMK SC1AC1AC1CI3CI3 SC TR SLP314

CYYT Flight Activity (Flightaware)

Listeners: 2 out of 3091 total

St. John's Ground: 121.900
St. John's Tower: 120.600

CYYT Tower (Archives)
St. John's, Newfoundland, Canada

Feed Status: UP
Listen in your browser - HTML5 player(in browser, HTML5)
Click here to listen with your own player(launches your MP3 player)

CYYT 121700Z 26017G22KT 15SM FEW040 FEW080 FEW140 BKN220 OVC240 07/M03 A3043 RMK SC1AC1AC1CI3CI3 SC TR SLP314

CYYT Flight Activity (Flightaware)

Listeners: 1 out of 3091 total

St. John's Tower: 120.600

Gander Center 133.150 (Archives)
St. John's, Newfoundland, Canada

Feed Status: UP
Listen in your browser - HTML5 player(in browser, HTML5)
Click here to listen with your own player(launches your MP3 player)

CYYT 121700Z 26017G22KT 15SM FEW040 FEW080 FEW140 BKN220 OVC240 07/M03 A3043 RMK SC1AC1AC1CI3CI3 SC TR SLP314

CYYT Flight Activity (Flightaware)

Listeners: 4 out of 3091 total

Gander Center: 133.150

Gander Radio 122.375 (Archives)
St. John's, Newfoundland, Canada

Feed Status: UP
Listen in your browser - HTML5 player(in browser, HTML5)
Click here to listen with your own player(launches your MP3 player)

CYYT 121700Z 26017G22KT 15SM FEW040 FEW080 FEW140 BKN220 OVC240 07/M03 A3043 RMK SC1AC1AC1CI3CI3 SC TR SLP314

CYYT Flight Activity (Flightaware)

Listeners: 1 out of 3091 total

Gander Radio (International Air Radio): 122.375

CYYZ Apron (Archives)
Toronto, Ontario, Canada

Feed Status: UP
Listen in your browser - HTML5 player(in browser, HTML5)
Click here to listen with your own player(launches your MP3 player)

CYYZ 121700Z 25021G28KT 15SM -RA OVC018 09/07 A2910 RMK SC8 SLP859 DENSITY ALT 1000FT

CYYZ Flight Activity (Flightaware)

Listeners: 0 out of 3091 total

Toronto Apron (Backup): 122.825
Toronto Apron (North): 122.275
Toronto Apron (South): 122.075

CYYZ Apron (Backup) (Archives)
Toronto, Ontario, Canada

Feed Status: UP
Listen in your browser - HTML5 player(in browser, HTML5)
Click here to listen with your own player(launches your MP3 player)

CYYZ 121700Z 25021G28KT 15SM -RA OVC018 09/07 A2910 RMK SC8 SLP859 DENSITY ALT 1000FT

CYYZ Flight Activity (Flightaware)

Listeners: 0 out of 3091 total

Toronto Apron (Backup): 122.825

CYYZ Apron (North) (Archives)
Toronto, Ontario, Canada

Feed Status: UP
Listen in your browser - HTML5 player(in browser, HTML5)
Click here to listen with your own player(launches your MP3 player)

CYYZ 121700Z 25021G28KT 15SM -RA OVC018 09/07 A2910 RMK SC8 SLP859 DENSITY ALT 1000FT

CYYZ Flight Activity (Flightaware)

Listeners: 0 out of 3091 total

Toronto Apron (North): 122.275

CYYZ Apron (South) (Archives)
Toronto, Ontario, Canada

Feed Status: UP
Listen in your browser - HTML5 player(in browser, HTML5)
Click here to listen with your own player(launches your MP3 player)

CYYZ 121700Z 25021G28KT 15SM -RA OVC018 09/07 A2910 RMK SC8 SLP859 DENSITY ALT 1000FT

CYYZ Flight Activity (Flightaware)

Listeners: 1 out of 3091 total

Toronto Apron (South): 122.075

CYYZ Apron Coordinator (Archives)
Toronto, Ontario, Canada

Feed Status: UP
Listen in your browser - HTML5 player(in browser, HTML5)
Click here to listen with your own player(launches your MP3 player)

CYYZ 121700Z 25021G28KT 15SM -RA OVC018 09/07 A2910 RMK SC8 SLP859 DENSITY ALT 1000FT

CYYZ Flight Activity (Flightaware)

Listeners: 0 out of 3091 total

Toronto Apron Coordinator: 122.875

CYYZ Arrival (Archives)
Toronto, Ontario, Canada

Feed Status: UP
Listen in your browser - HTML5 player(in browser, HTML5)
Click here to listen with your own player(launches your MP3 player)

CYYZ 121700Z 25021G28KT 15SM -RA OVC018 09/07 A2910 RMK SC8 SLP859 DENSITY ALT 1000FT

CYYZ Flight Activity (Flightaware)

Listeners: 3 out of 3091 total

Toronto Terminal (Arrivals): 132.800
Toronto Terminal (Arrivals): 124.475
Toronto Terminal (Arrivals): 125.400

CYYZ ATIS (Archives)
Toronto, Ontario, Canada

Feed Status: UP
Listen in your browser - HTML5 player(in browser, HTML5)
Click here to listen with your own player(launches your MP3 player)

CYYZ 121700Z 25021G28KT 15SM -RA OVC018 09/07 A2910 RMK SC8 SLP859 DENSITY ALT 1000FT

CYYZ Flight Activity (Flightaware)

Listeners: 0 out of 3091 total

Toronto ATIS: 120.825

CYYZ Clearance Delivery (Archives)
Toronto, Ontario, Canada

Feed Status: UP
Listen in your browser - HTML5 player(in browser, HTML5)
Click here to listen with your own player(launches your MP3 player)

CYYZ 121700Z 25021G28KT 15SM -RA OVC018 09/07 A2910 RMK SC8 SLP859 DENSITY ALT 1000FT

CYYZ Flight Activity (Flightaware)

Listeners: 1 out of 3091 total

Emergency/Guard: 121.500
Toronto Clearance Delivery: 121.300

CYYZ Departure (Archives)
Toronto, Ontario, Canada

Feed Status: UP
Listen in your browser - HTML5 player(in browser, HTML5)
Click here to listen with your own player(launches your MP3 player)

CYYZ 121700Z 25021G28KT 15SM -RA OVC018 09/07 A2910 RMK SC8 SLP859 DENSITY ALT 1000FT

CYYZ Flight Activity (Flightaware)

Listeners: 1 out of 3091 total

Toronto Departure: 127.575
Toronto Departure: 128.800

CYYZ Discrete/Emergency (Archives)
Toronto, Ontario, Canada

Feed Status: UP
Listen in your browser - HTML5 player(in browser, HTML5)
Click here to listen with your own player(launches your MP3 player)

CYYZ 121700Z 25021G28KT 15SM -RA OVC018 09/07 A2910 RMK SC8 SLP859 DENSITY ALT 1000FT

CYYZ Flight Activity (Flightaware)

Listeners: 0 out of 3091 total

Toronto Discrete/Emergency: 122.675

CYYZ Ground (Archives)
Toronto, Ontario, Canada

Feed Status: UP
Listen in your browser - HTML5 player(in browser, HTML5)
Click here to listen with your own player(launches your MP3 player)

CYYZ 121700Z 25021G28KT 15SM -RA OVC018 09/07 A2910 RMK SC8 SLP859 DENSITY ALT 1000FT

CYYZ Flight Activity (Flightaware)

Listeners: 3 out of 3091 total

Toronto Ground: 119.100
Toronto Ground: 121.650
Toronto Ground: 121.900

CYYZ Ground 121.65 (Archives)
Toronto, Ontario, Canada

Feed Status: UP
Listen in your browser - HTML5 player(in browser, HTML5)
Click here to listen with your own player(launches your MP3 player)

CYYZ 121700Z 25021G28KT 15SM -RA OVC018 09/07 A2910 RMK SC8 SLP859 DENSITY ALT 1000FT

CYYZ Flight Activity (Flightaware)

Listeners: 0 out of 3091 total

Toronto Ground: 121.650

CYYZ Ground 121.9 (Archives)
Toronto, Ontario, Canada

Feed Status: UP
Listen in your browser - HTML5 player(in browser, HTML5)
Click here to listen with your own player(launches your MP3 player)

CYYZ 121700Z 25021G28KT 15SM -RA OVC018 09/07 A2910 RMK SC8 SLP859 DENSITY ALT 1000FT

CYYZ Flight Activity (Flightaware)

Listeners: 0 out of 3091 total

Toronto Ground: 121.900

CYYZ Tower (Archives)
Toronto, Ontario, Canada

Feed Status: UP
Listen in your browser - HTML5 player(in browser, HTML5)
Click here to listen with your own player(launches your MP3 player)

CYYZ 121700Z 25021G28KT 15SM -RA OVC018 09/07 A2910 RMK SC8 SLP859 DENSITY ALT 1000FT

CYYZ Flight Activity (Flightaware)

Listeners: 10 out of 3091 total

Pearson Tower (North): 118.700
Pearson Tower (South): 118.350

Toronto Center (Barrie) (Archives)
Toronto, Ontario, Canada

Feed Status: UP
Listen in your browser - HTML5 player(in browser, HTML5)
Click here to listen with your own player(launches your MP3 player)

CZYZ Flight Activity (Flightaware)

Listeners: 5 out of 3091 total

Toronto Center (Barrie Sector, East High): 134.575

Toronto Center (East Satellite) (Archives)
Toronto, Ontario, Canada

Feed Status: UP
Listen in your browser - HTML5 player(in browser, HTML5)
Click here to listen with your own player(launches your MP3 player)

CZYZ Flight Activity (Flightaware)

Listeners: 1 out of 3091 total

Toronto Center (East Satellite Sector): 133.400

Toronto Center (Hamilton) #1 (Archives)
Toronto, Ontario, Canada

Feed Status: UP
Listen in your browser - HTML5 player(in browser, HTML5)
Click here to listen with your own player(launches your MP3 player)

CZYZ Flight Activity (Flightaware)

Listeners: 1 out of 3091 total

Toronto Center (Hamilton Sector, West Low): 132.475

Toronto Center (Hamilton) #2 (Archives)
Toronto, Ontario, Canada

Feed Status: UP
Listen in your browser - HTML5 player(in browser, HTML5)
Click here to listen with your own player(launches your MP3 player)

CYTZ 121718Z AUTO 24016G24KT 9SM OVC024 08/06 A2912 RMK SLP865 DENSITY ALT 500FT

CYTZ Flight Activity (Flightaware)

Listeners: 1 out of 3091 total

Toronto Center (Hamilton Sector, West Low): 132.475

Toronto Center (Oakville) (Archives)
Toronto, Ontario, Canada

Feed Status: UP
Listen in your browser - HTML5 player(in browser, HTML5)
Click here to listen with your own player(launches your MP3 player)

CZYZ Flight Activity (Flightaware)

Listeners: 1 out of 3091 total

Toronto Center (Oakville Sector, West High): 134.925

Toronto Terminal (West Satellite) #1 (Archives)
Toronto, Ontario, Canada

Feed Status: UP
Listen in your browser - HTML5 player(in browser, HTML5)
Click here to listen with your own player(launches your MP3 player)

CYTZ 121718Z AUTO 24016G24KT 9SM OVC024 08/06 A2912 RMK SLP865 DENSITY ALT 500FT

CYTZ Flight Activity (Flightaware)

Listeners: 1 out of 3091 total

Toronto Terminal (West Satellite): 119.300

CYZF Gnd/Twr/Center (Archives)
Yellowknife, Northwest Territories, Canada

Feed Status: UP
Listen in your browser - HTML5 player(in browser, HTML5)
Click here to listen with your own player(launches your MP3 player)

CYZF 121700Z 14012G19KT 15SM FEW090 BKN180 02/M03 A2956 RMK AC1AC7 AC TR SLP026

CYZF Flight Activity (Flightaware)

Listeners: 1 out of 3091 total

Edmonton Centre: 135.800
Yellowknife Ground: 121.900
Yellowknife Tower: 118.500

CYZX App/Dep/PAR (Archives)
Greenwood, Nova Scotia, Canada

Feed Status: UP
Listen in your browser - HTML5 player(in browser, HTML5)
Click here to listen with your own player(launches your MP3 player)

CYZX 121722Z 16011KT 12SM -SHRA OVC009 14/12 A2997 RMK SF8 DENSITY ALT 170FT PCPN VRY LGT SLP148

CYZX Flight Activity (Flightaware)

Listeners: 0 out of 3091 total

Greenwood Approach/Departure: 120.600
Greenwood PAR: 118.100
Greenwood Terminal: 126.200

CYZX Del/Ground (Archives)
Greenwood, Nova Scotia, Canada

Feed Status: UP
Listen in your browser - HTML5 player(in browser, HTML5)
Click here to listen with your own player(launches your MP3 player)

CYZX 121722Z 16011KT 12SM -SHRA OVC009 14/12 A2997 RMK SF8 DENSITY ALT 170FT PCPN VRY LGT SLP148

CYZX Flight Activity (Flightaware)

Listeners: 0 out of 3091 total

Greenwood Clearance Delivery: 128.025
Greenwood Clearance Delivery: 283.900
Greenwood Ground: 133.750
Greenwood Ground: 289.400

CYZX Tower (Archives)
Greenwood, Nova Scotia, Canada

Feed Status: UP
Listen in your browser - HTML5 player(in browser, HTML5)
Click here to listen with your own player(launches your MP3 player)

CYZX 121722Z 16011KT 12SM -SHRA OVC009 14/12 A2997 RMK SF8 DENSITY ALT 170FT PCPN VRY LGT SLP148

CYZX Flight Activity (Flightaware)

Listeners: 0 out of 3091 total

Greenwood Tower: 119.500
Greenwood Tower: 324.300

CZBB Tower (Inner) (Archives)
Boundary Bay, British Columbia, Canada

Feed Status: UP
Listen in your browser - HTML5 player(in browser, HTML5)
Click here to listen with your own player(launches your MP3 player)

CZBB Flight Activity (Flightaware)

Listeners: 1 out of 3091 total

Boundary Bay Tower (Inner): 118.100